UWE-4

Last updated on Sat Apr 13 2024 01:02:57 GMT+0100 (British Summer Time)

1 43880U 18111E 24103.53689631 .00008875 00000+0 58371-3 0 9990 2 43880 97.6161 9.8068 0015416 228.1006 131.8908 15.07709711289537
UTC large
Height (km)
Speed (km/s)
/
Latitude / Longitude
Inclination (degrees)
Orbital Period (minutes)
Azimuth
Elevation
Range (km)
Doppler Factor

Next 0 passes for location: London (51.5072 / 0.1276)

Sorry there are no passes over London.